Flag for Canada Weather past 2 weeks in Burlington, Ontario, Canada

Now
75 °F

Mild.


Feels Like: 76 °F
Forecast: 65 / 83 °F
Wind: 5 mph from East

Location: Burlington Piers

Current Time: Sep 1, 2015 at 2:31:47 PM

Latest Report: Sep 1, 2015 at 2:00 PM


Visibility: N/A

Pressure: 30.03 "Hg

Humidity: 76%

Dew point: 67 °F

Location of BurlingtonLocation

Historic Weather in Burlington — Graph

°F

Burlington temperature yesterday

Maximum temperature yesterday: 84 °F (at 6:00 PM)
Minimum temperature yesterday: 67 °F (at 9:00 AM)
Average temperature yesterday: 75 °F

Past Weeks' High & Low Weather Summary

 TemperatureHumidityPressure
High87 °F (Aug 17, 3:00 PM)98% (Aug 31, 9:00 AM)30.22 "Hg (Aug 31, 9:00 AM)
Low58 °F (Aug 28, 7:00 AM)43% (Aug 24, 2:00 PM)29.70 "Hg (Aug 20, 6:00 AM)
Average69 °F74%29.99 "Hg
* Reported Aug 17 1:00 PM — Sep 1 1:00 PM, Burlington, Weather by CustomWeather, © 2015

Note: Actual official high and low records may vary slightly from our data, if they occured in-between our weather recording intervals... More about our weather records

Advertising

Burlington weather history for previous 24 hours

 ConditionsComfort  
Time TempWeatherWind HumidityBarometerVisibility
1:00 PM
Tue, Sep 1
75 °FMild.2 mph75%30.05 "HgN/A
12:00 PM69 °FMild.5 mph92%30.07 "HgN/A
11:00 AM68 °FMild.6 mph86%30.08 "HgN/A
10:00 AM70 °FMild.3 mph81%30.08 "HgN/A
9:00 AM68 °FMild.6 mph86%30.07 "HgN/A
8:00 AM67 °FMild.5 mph88%30.07 "HgN/A
7:00 AM67 °FMild.3 mph89%30.07 "HgN/A
6:00 AM67 °FMild.2 mph90%30.06 "HgN/A
5:00 AM68 °FMild.3 mph88%30.05 "HgN/A
4:00 AM69 °FMild.3 mph87%30.05 "HgN/A
3:00 AM70 °FMild.5 mph81%30.04 "HgN/A
2:00 AM71 °FMild.6 mph82%30.04 "HgN/A
1:00 AM74 °FMild.3 mph74%30.03 "HgN/A
12:00 AM74 °FMild.1 mph73%30.03 "HgN/A
11:00 PM
Mon, Aug 31
76 °FMild.3 mph69%30.02 "HgN/A
10:00 PM76 °FMild.5 mph68%30.01 "HgN/A
9:00 PM78 °FWarm.3 mph64%30.00 "HgN/A
8:00 PM80 °FWarm.6 mph57%29.99 "HgN/A
7:00 PM83 °FWarm.3 mph50%29.98 "HgN/A
6:00 PM84 °FWarm.5 mph44%29.98 "HgN/A
5:00 PM84 °FWarm.6 mph47%29.98 "HgN/A
4:00 PM83 °FWarm.7 mph51%29.99 "HgN/A
3:00 PM82 °FWarm.6 mph53%30.00 "HgN/A
2:00 PM80 °FWarm.6 mph58%30.01 "HgN/A
Weather by CustomWeather, © 2015

See weather overviewHow to use our weather pages